Regional Weather Roundup
Issued by NWS San Angelo, TX

Home | Current Version | Previous Version | Text Only | Print | Product List | Glossary Off
Versions: 1 2 3 4 5 6 7 8 9 10 11 12 13 14 15 16 17 18 19 20 21 22 23 24 25 26 27 28 29 30 31 32 33 34 35 36 37 38 39 40 41 42 43 44 45 46 47 48 49 50

000
ASUS44 KSJT 280110
RWRSJT
WEST CENTRAL TEXAS REGIONAL WEATHER ROUNDUP
NATIONAL WEATHER SERVICE SAN ANGELO TX
800 PM CDT WED AUG 27 2014

NOTE: "FAIR" INDICATES FEW OR NO CLOUDS BELOW 12,000 FEET WITH NO
SIGNIFICANT WEATHER AND/OR OBSTRUCTIONS TO VISIBILITY.

TXZ049-054-064>066-071>073-076>078-098-099-113-114-127-128-139-140-
154-155-168>170-280200
...LOCATIONS ACROSS WEST CENTRAL TEXAS...

CITY           SKY/WX    TMP DP  RH WIND       PRES   REMARKS
SAN ANGELO     CLEAR     92  61  35 E5        29.97S
ABILENE        MOCLDY    93  60  33 SE13      29.98R
DYESS AFB      PTCLDY    90  63  39 S10       29.97R
JUNCTION       CLEAR     90  64  42 E7        29.97R
SWEETWATER     PTCLDY    89  60  37 SE8       30.04S
BROWNWOOD      CLEAR     90  61  37 E9        29.97R
COLEMAN        PTCLDY    89  59  35 SE6       29.98R
SONORA         CLEAR     90  59  35 E5        30.03S
OZONA          FAIR      90  57  33 E9        30.02S
BRADY          CLEAR     90  61  37 E6        29.99R
$$

TEXAS PANHANDLE/OKLAHOMA PANHANDLE

CITY           SKY/WX    TMP DP  RH WIND       PRES   REMARKS
AMARILLO       MOCLDY    73  65  75 SE18G24   30.08S
BORGER         MOCLDY    75  65  70 SE14G25   30.04R
CANADIAN       LGT RAIN  73  71  92 N5        30.06R
DALHART        PTCLDY    83  55  38 SW9       30.05R
DUMAS          PTCLDY    75  64  69 SE13      30.06R
GUYMON         NOT AVBL
HEREFORD       MOCLDY    84  57  39 S9        30.07R
PAMPA          CLOUDY    68  64  88 SE8       30.08F
PERRYTON       CLOUDY    71  67  88 SE17G24   30.06S
$$

SOUTHERN PANHANDLE/SOUTH PLAINS/ROLLING PLAINS

CITY           SKY/WX    TMP DP  RH WIND       PRES   REMARKS
LUBBOCK        CLOUDY    80  58  46 W14       30.06R
SNYDER         CLOUDY    91  60  35 E7        30.02R
CHILDRESS      PTCLDY    85  68  56 SE5       29.99R
SEMINOLE       CLOUDY    86  55  33 N5        30.06F
$$

PERMIAN BASIN

CITY           SKY/WX    TMP DP  RH WIND       PRES   REMARKS
MIDLAND        MOCLDY    93  55  27 SE8       30.01S
ODESSA         MOCLDY    92  54  27 SE7       30.02S
WINK           MOCLDY    95  51  22 W13       29.98S
$$

FAR WEST/SOUTHWEST MOUNTAINS/TRANS PECOS

CITY           SKY/WX    TMP DP  RH WIND       PRES   REMARKS
ALPINE         CLOUDY    84  52  33 CALM      30.18R
DRYDEN           N/A     97  56  25 SE10      29.96R
EL PASO        MOCLDY    84  59  42 SE3       30.09S
FORT STOCKTON  PTCLDY    91  51  25 SE3       30.01S
GUADALUPE PASS CLEAR     78  55  44 SW14      30.24R
MARFA          MOCLDY    79  55  44 W10       30.19R
PECOS          MOCLDY    91  52  26 W12       29.99S
$$

DALLAS/FORT WORTH METROPLEX

CITY           SKY/WX    TMP DP  RH WIND       PRES   REMARKS
DFW AIRPORT    PTCLDY    90  62  39 E10       29.95S
FTW MEACHAM    CLEAR     91  64  40 SE9       29.95R
DAL-EXECUTIVE  CLEAR     90  61  37 E9        29.96R
GRAND PRAIRIE  CLEAR     90  61  37 E8        29.97R
ADDISON        CLEAR     90  59  35 E10       29.97S
MESQUITE       CLEAR     88  59  37 E6        29.96S
LANCASTER      CLEAR     88  58  35 E6        29.97R
$$

NORTH CENTRAL TEXAS

CITY           SKY/WX    TMP DP  RH WIND       PRES   REMARKS
SHRMAN/DENISON CLEAR     87  63  44 E6        29.99R
GAINESVILLE    CLEAR     85  66  52 E7        29.99S
BRIDGEPORT     CLEAR     90  58  34 SE6       29.97S
DENTON         CLEAR     89  65  44 SE10      29.96R
WAXAHACHIE     CLEAR     87  55  34 E5        29.98R
GRANBURY       CLEAR     91  63  38 E8        29.97S
$$

WESTERN NORTH TEXAS

CITY           SKY/WX    TMP DP  RH WIND       PRES   REMARKS
WICHITA FALLS  CLEAR     91  63  39 SE16      29.94S
VERNON         MOCLDY    95  57  27 SE9       29.95R
BRECKENRIDGE   CLEAR     93  58  30 SE12      29.96R HAZE
COMANCHE         N/A     88  59  37 SE6       29.98R
$$

CENTRAL AND SOUTH CENTRAL TEXAS

CITY           SKY/WX    TMP DP  RH WIND       PRES   REMARKS
AUSTIN/BERGSTM PTCLDY    90  55  30 E6        29.93R
WACO           CLEAR     89  56  32 E9        29.95R
HILLSBORO      CLEAR     88  56  34 E5        29.97R HAZE
TEMPLE         CLEAR     88  55  33 E12       29.95R
KILLEEN-GRAY   PTCLDY    90  61  37 E10       29.96R
FORT HOOD      CLEAR     91  59  33 E7        29.96R
GEORGETOWN     CLEAR     91  57  31 VRB5      29.94R
LAGO VISTA     FAIR      89  55  31 E7        29.97R
SAN MARCOS     CLEAR     88  52  29 E8        29.94R
NEW BRAUNFELS  CLEAR     91  56  30 E8        29.91R
RANDOLPH AFB   CLEAR     91  56  30 E8        29.93R
SAN ANTONIO    PTCLDY    93  55  27 E9        29.92S
STINSON        CLEAR     93  56  28 E8        29.90R
PLEASANTON     NOT AVBL
LA GRANGE      PTCLDY    89  73  58 SE9G17    29.92R
GIDDINGS       CLOUDY    91  63  39 E5        29.97S
$$

EAST TEXAS

CITY           SKY/WX    TMP DP  RH WIND       PRES   REMARKS
PARIS          CLEAR     82  64  54 SE5       29.99S
CLARKSVILLE    CLEAR     85  66  54 CALM      29.98S
TYLER          CLEAR     87  59  38 E6        29.97S
LONGVIEW       CLEAR     83  65  54 SE3       29.96S
PALESTINE      CLEAR     85  65  52 E5        29.98R
NACOGDOCHES    CLEAR     84  66  54 E3        29.97S
$$

TEXAS HILL COUNTRY AND EDWARDS PLATEAU

CITY           SKY/WX    TMP DP  RH WIND       PRES   REMARKS
LLANO          CLEAR     91  61  35 SE6       29.98R
HORSESHOE BAY  FAIR      89  58  34 CALM      29.96R
KERRVILLE      CLEAR     87  63  44 E5        29.98S
FREDERICKSBRG  CLEAR     88  58  36 E5        29.99R
ROCKSPRINGS    HAZE      86  64  48 SE6       30.03R VSB 1/4
HONDO            N/A    N/A N/A N/A MISG      29.94R
UVALDE         CLEAR     93  64  37 E6        29.92S
DEL RIO        PTCLDY    96  61  31 SE8       29.90R
$$

SOUTHEAST TEXAS

CITY           SKY/WX    TMP DP  RH WIND       PRES   REMARKS
COLLEGE STN    PTCLDY    90  64  42 E7        29.94R
CALDWELL       CLOUDY    90  61  37 E6        29.97R
CROCKETT       CLEAR     88  72  58 E3        29.99R
BRENHAM        CLEAR     89  70  54 SE10      29.95R
HUNTSVILLE     CLOUDY    89  66  46 VRB3      29.95S
CONROE         CLOUDY    82  72  71 SE6       29.97R
HOUSTON BUSH   MOCLDY    81  73  78 E9        29.96R
HOUSTON HOBBY  MOCLDY    83  73  72 E8        29.95R
PERLAND        PTCLDY    84  74  71 NE15      29.96R
WHARTON        CLEAR     82  73  74 E5        29.95S
$$

THE UPPER TEXAS COAST

CITY           SKY/WX    TMP DP  RH WIND       PRES   REMARKS
ORANGE         MOCLDY    79  70  74 CALM      29.97S
PORT ARTHUR    MOCLDY    82  73  74 SE6       29.95S
GALVESTON      MOCLDY    84  76  76 E14       29.95R
ANGLETON       PTCLDY    83  76  79 E8        29.94S
BAY CITY       CLEAR     85  76  74 E10       29.94R
$$

TEXAS COASTAL BEND, RIO GRANDE PLAINS DEEP SOUTH TEXAS

CITY           SKY/WX    TMP DP  RH WIND       PRES   REMARKS
VICTORIA       CLOUDY    88  72  58 E13       29.93R
BEEVILLE       CLOUDY    90  66  45 E10G18    29.90S
ROCKPORT       CLOUDY    85  75  72 E15       29.90R
PORT ARANSAS   CLEAR     83  75  76 NE16G22   29.90R
PORT LAVACA    PTCLDY    83  73  72 E8        29.92S
CORPUS CHRISTI PTCLDY    87  74  64 E20       29.89R
KINGSVILLE NAS MOCLDY    88  74  63 E18G28    29.89R
COTULLA        CLEAR     96  59  29 E9        29.88S
LAREDO         CLEAR     98  61  29 NE12      29.90R
BROWNSVILLE    CLEAR     85  77  77 NE16G23   29.87R
PORT ISABEL    CLEAR     85  75  72 NE18G25   29.87R
HEBBRONVILLE   PTCLDY    93  65  39 E18       29.90R
MCALLEN        CLEAR     91  72  53 NE17G26   29.86R
WESLACO        CLEAR     87  70  56 NE15G23   29.87R
FALFURRIAS     CLEAR     91  73  55 E14       29.88R
EDINBURG       CLEAR     90  69  50 NE18G24   29.87R
$$



USA.gov is the U.S. government's official web portal to all federal, state and local government web resources and services.